Time,TemperatureF,DewpointF,PressureIn,WindDirection,WindDirectionDegrees,WindSpeedMPH,WindSpeedGustMPH,Humidity,HourlyPrecipIn,Conditions,Clouds,dailyrainin,SoftwareType,DateUTC
2013-05-06 00:00:00,63.6,63.0,29.81,SE,134,0.0,0.0,98,0.00,,OVC005,0.40,VWS V14.01,2013-05-06 04:00:00,
2013-05-06 00:05:00,63.6,63.0,29.81,SE,134,0.0,0.0,98,0.00,,OVC005,0.00,VWS V14.01,2013-05-06 04:05:00,
2013-05-06 00:10:00,63.6,63.0,29.81,SE,134,0.0,0.0,98,0.00,,OVC005,0.00,VWS V14.01,2013-05-06 04:10:00,
2013-05-06 00:15:00,63.6,63.0,29.81,SE,134,0.0,0.0,98,0.00,,OVC005,0.00,VWS V14.01,2013-05-06 04:15:00,
2013-05-06 00:19:00,63.6,63.0,29.81,SE,133,0.0,0.0,98,0.00,,OVC005,0.00,VWS V14.01,2013-05-06 04:19:00,
2013-05-06 00:28:00,63.4,62.8,29.80,SE,133,0.0,1.0,98,0.00,,OVC005,0.00,VWS V14.01,2013-05-06 04:28:00,
2013-05-06 00:30:00,63.4,62.8,29.80,SE,134,0.0,1.0,98,0.00,,OVC005,0.00,VWS V14.01,2013-05-06 04:30:00,
2013-05-06 00:33:00,63.3,62.7,29.80,SE,134,0.0,0.0,98,0.00,,OVC005,0.00,VWS V14.01,2013-05-06 04:33:00,
2013-05-06 00:42:00,63.1,62.5,29.80,SE,133,0.0,0.0,98,0.00,,OVC005,0.00,VWS V14.01,2013-05-06 04:42:00,
2013-05-06 00:45:00,63.0,62.4,29.80,SE,134,0.0,0.0,98,0.00,,OVC005,0.00,VWS V14.01,2013-05-06 04:45:00,
2013-05-06 00:52:00,62.8,62.2,29.80,SE,133,0.0,0.0,98,0.00,,OVC005,0.00,VWS V14.01,2013-05-06 04:52:00,
2013-05-06 01:00:00,62.6,62.0,29.80,SE,133,0.0,0.0,98,0.00,,OVC005,0.00,VWS V14.01,2013-05-06 05:00:00,
2013-05-06 01:06:00,62.5,61.9,29.81,SE,134,0.0,0.0,98,0.00,,OVC005,0.00,VWS V14.01,2013-05-06 05:06:00,
2013-05-06 01:15:00,62.2,61.6,29.81,SE,134,0.0,0.0,98,0.00,,OVC005,0.00,VWS V14.01,2013-05-06 05:15:00,
2013-05-06 01:24:00,62.0,61.4,29.80,SE,133,0.0,0.0,98,0.00,,OVC005,0.00,VWS V14.01,2013-05-06 05:24:00,
2013-05-06 01:30:00,62.1,61.5,29.80,SE,133,0.0,0.0,98,0.00,,OVC005,0.00,VWS V14.01,2013-05-06 05:30:00,
2013-05-06 01:38:00,62.4,61.8,29.80,SE,133,0.0,0.0,98,0.00,,OVC005,0.00,VWS V14.01,2013-05-06 05:38:00,
2013-05-06 01:45:00,62.5,61.9,29.80,SE,134,0.0,0.0,98,0.00,,OVC005,0.00,VWS V14.01,2013-05-06 05:45:00,
2013-05-06 01:53:00,62.8,62.2,29.80,SE,134,0.0,0.0,98,0.00,,OVC005,0.00,VWS V14.01,2013-05-06 05:53:00,
2013-05-06 02:00:00,62.7,62.1,29.79,SE,134,0.0,0.0,98,0.00,,OVC005,0.00,VWS V14.01,2013-05-06 06:00:00,
2013-05-06 02:07:00,62.6,62.0,29.79,SE,134,0.0,0.0,98,0.00,,OVC005,0.00,VWS V14.01,2013-05-06 06:07:00,
2013-05-06 02:15:00,62.6,62.0,29.78,SE,133,0.0,0.0,98,0.00,,OVC005,0.00,VWS V14.01,2013-05-06 06:15:00,
2013-05-06 02:21:00,62.5,61.9,29.78,SE,133,0.0,0.0,98,0.00,,OVC005,0.00,VWS V14.01,2013-05-06 06:21:00,
2013-05-06 02:30:00,62.4,61.8,29.78,SE,134,0.0,0.0,98,0.00,,OVC005,0.00,VWS V14.01,2013-05-06 06:30:00,
2013-05-06 02:39:00,62.4,61.8,29.78,SE,134,0.0,0.0,98,0.00,,OVC010,0.00,VWS V14.01,2013-05-06 06:39:00,
2013-05-06 02:45:00,62.3,61.7,29.77,SE,134,0.0,0.0,98,0.00,,OVC010,0.00,VWS V14.01,2013-05-06 06:45:00,
2013-05-06 02:53:00,62.1,61.5,29.77,SE,134,0.0,2.0,98,0.00,,OVC010,0.00,VWS V14.01,2013-05-06 06:53:00,
2013-05-06 03:00:00,61.9,61.3,29.78,SE,134,0.0,2.0,98,0.00,,OVC010,0.00,VWS V14.01,2013-05-06 07:00:00,
2013-05-06 03:07:00,61.8,61.2,29.78,West,261,0.0,2.0,98,0.00,,BKN080,0.00,VWS V14.01,2013-05-06 07:07:00,
2013-05-06 03:15:00,61.7,61.1,29.78,West,261,0.0,2.0,98,0.00,,BKN080,0.00,VWS V14.01,2013-05-06 07:15:00,
2013-05-06 03:21:00,61.7,61.1,29.78,West,261,0.0,0.0,98,0.00,,BKN080,0.00,VWS V14.01,2013-05-06 07:21:00,
2013-05-06 03:30:00,61.4,60.8,29.78,West,261,0.0,0.0,98,0.00,,BKN080,0.00,VWS V14.01,2013-05-06 07:30:00,
2013-05-06 03:35:00,61.2,60.6,29.77,West,261,0.0,0.0,98,0.00,,BKN080,0.00,VWS V14.01,2013-05-06 07:35:00,
2013-05-06 03:45:00,60.9,60.3,29.77,West,261,0.0,0.0,98,0.00,,BKN080,0.00,VWS V14.01,2013-05-06 07:45:00,
2013-05-06 03:54:00,60.6,60.0,29.78,West,261,0.0,0.0,98,0.00,,BKN080,0.00,VWS V14.01,2013-05-06 07:54:00,
2013-05-06 04:00:00,60.5,59.9,29.78,West,261,0.0,0.0,98,0.00,,BKN080,0.00,VWS V14.01,2013-05-06 08:00:00,
2013-05-06 04:08:00,60.4,59.8,29.78,West,261,0.0,0.0,98,0.00,,,0.00,VWS V14.01,2013-05-06 08:08:00,
2013-05-06 04:15:00,60.5,59.9,29.78,West,261,0.0,0.0,98,0.00,,,0.00,VWS V14.01,2013-05-06 08:15:00,
2013-05-06 04:22:00,60.5,59.9,29.78,West,261,0.0,0.0,98,0.00,,,0.00,VWS V14.01,2013-05-06 08:22:00,
2013-05-06 04:30:00,60.5,59.9,29.78,West,261,0.0,0.0,98,0.00,,,0.00,VWS V14.01,2013-05-06 08:30:00,
2013-05-06 04:36:00,60.5,59.9,29.78,West,261,0.0,0.0,98,0.00,,SCT065,0.00,VWS V14.01,2013-05-06 08:36:00,
2013-05-06 04:45:00,60.3,59.7,29.79,West,261,0.0,0.0,98,0.00,,SCT065,0.00,VWS V14.01,2013-05-06 08:45:00,
2013-05-06 04:50:00,60.2,59.6,29.78,West,261,0.0,0.0,98,0.00,,SCT065,0.00,VWS V14.01,2013-05-06 08:50:00,
2013-05-06 05:00:00,60.0,59.4,29.79,West,261,0.0,0.0,98,0.00,,SCT065,0.00,VWS V14.01,2013-05-06 09:00:00,
2013-05-06 05:09:00,59.7,59.1,29.79,West,261,0.0,0.0,98,0.00,,CLR,0.00,VWS V14.01,2013-05-06 09:09:00,
2013-05-06 05:15:00,59.5,58.9,29.79,West,261,0.0,0.0,98,0.00,,CLR,0.00,VWS V14.01,2013-05-06 09:15:00,
2013-05-06 05:23:00,59.1,58.5,29.79,West,261,0.0,0.0,98,0.00,,CLR,0.00,VWS V14.01,2013-05-06 09:23:00,
2013-05-06 05:30:00,59.0,58.4,29.79,West,261,0.0,0.0,98,0.00,,CLR,0.00,VWS V14.01,2013-05-06 09:30:00,
2013-05-06 05:37:00,59.0,58.4,29.79,West,261,0.0,0.0,98,0.00,,CLR,0.00,VWS V14.01,2013-05-06 09:37:00,
2013-05-06 05:45:00,58.9,58.3,29.79,West,261,0.0,0.0,98,0.00,,CLR,0.00,VWS V14.01,2013-05-06 09:45:00,
2013-05-06 05:51:00,59.0,58.4,29.79,West,261,0.0,0.0,98,0.00,,CLR,0.00,VWS V14.01,2013-05-06 09:51:00,
2013-05-06 06:00:00,59.0,58.4,29.79,West,261,0.0,0.0,98,0.00,,CLR,0.00,VWS V14.01,2013-05-06 10:00:00,
2013-05-06 06:05:00,59.0,58.4,29.80,West,261,0.0,0.0,98,0.00,,CLR,0.00,VWS V14.01,2013-05-06 10:05:00,
2013-05-06 06:15:00,59.0,58.4,29.80,West,261,0.0,0.0,98,0.00,,CLR,0.00,VWS V14.01,2013-05-06 10:15:00,
2013-05-06 06:24:00,59.0,58.4,29.80,West,261,0.0,0.0,98,0.00,,CLR,0.00,VWS V14.01,2013-05-06 10:24:00,
2013-05-06 06:30:00,59.0,58.4,29.80,West,261,0.0,0.0,98,0.00,,CLR,0.00,VWS V14.01,2013-05-06 10:30:00,
2013-05-06 06:38:00,59.0,58.4,29.81,West,261,0.0,0.0,98,0.00,,CLR,0.00,VWS V14.01,2013-05-06 10:38:00,
2013-05-06 06:45:00,59.0,58.4,29.81,West,261,0.0,0.0,98,0.00,,CLR,0.00,VWS V14.01,2013-05-06 10:45:00,
2013-05-06 06:52:00,59.0,58.4,29.81,West,261,0.0,0.0,98,0.00,,CLR,0.00,VWS V14.01,2013-05-06 10:52:00,
2013-05-06 07:00:00,58.9,58.3,29.81,West,261,0.0,0.0,98,0.00,,CLR,0.00,VWS V14.01,2013-05-06 11:00:00,
2013-05-06 07:06:00,58.7,58.1,29.81,West,261,0.0,0.0,98,0.00,,CLR,0.00,VWS V14.01,2013-05-06 11:06:00,
2013-05-06 07:15:00,58.5,57.9,29.81,West,261,0.0,0.0,98,0.00,,CLR,0.00,VWS V14.01,2013-05-06 11:15:00,
2013-05-06 07:25:00,58.4,57.8,29.82,West,261,0.0,0.0,98,0.00,,CLR,0.00,VWS V14.01,2013-05-06 11:25:00,
2013-05-06 07:30:00,58.3,57.7,29.82,West,261,0.0,0.0,98,0.00,,CLR,0.00,VWS V14.01,2013-05-06 11:30:00,
2013-05-06 07:39:00,58.2,57.6,29.82,West,261,0.0,0.0,98,0.00,,CLR,0.00,VWS V14.01,2013-05-06 11:39:00,
2013-05-06 07:45:00,58.3,57.7,29.82,West,261,0.0,0.0,98,0.00,,CLR,0.00,VWS V14.01,2013-05-06 11:45:00,
2013-05-06 07:53:00,58.4,57.8,29.83,West,261,0.0,0.0,98,0.00,,CLR,0.00,VWS V14.01,2013-05-06 11:53:00,
2013-05-06 08:00:00,58.5,57.9,29.82,West,261,0.0,0.0,98,0.00,,CLR,0.00,VWS V14.01,2013-05-06 12:00:00,
2013-05-06 08:07:00,58.2,57.6,29.82,West,261,0.0,0.0,98,0.00,,SCT005,0.00,VWS V14.01,2013-05-06 12:07:00,
2013-05-06 08:15:00,58.2,57.6,29.83,SW,221,0.0,1.0,98,0.00,,SCT005,0.00,VWS V14.01,2013-05-06 12:15:00,
2013-05-06 08:21:00,58.1,57.5,29.83,SW,221,0.0,0.0,98,0.00,,SCT005,0.00,VWS V14.01,2013-05-06 12:21:00,
2013-05-06 08:30:00,58.2,57.6,29.83,NNE,17,0.0,2.0,98,0.00,,SCT005,0.00,VWS V14.01,2013-05-06 12:30:00,
2013-05-06 08:39:00,58.7,58.4,29.83,ESE,123,0.0,1.0,99,0.00,,BKN005,0.00,VWS V14.01,2013-05-06 12:39:00,
2013-05-06 08:45:00,58.8,58.2,29.83,ESE,123,0.0,1.0,98,0.00,,BKN005,0.00,VWS V14.01,2013-05-06 12:45:00,
2013-05-06 08:53:00,58.8,58.2,29.83,ESE,123,0.0,1.0,98,0.00,,BKN005,0.00,VWS V14.01,2013-05-06 12:53:00,
2013-05-06 09:00:00,59.0,58.4,29.83,ESE,123,0.0,1.0,98,0.00,,BKN005,0.00,VWS V14.01,2013-05-06 13:00:00,
2013-05-06 09:07:00,59.0,58.4,29.83,WSW,246,0.0,5.0,98,0.00,,OVC005,0.00,VWS V14.01,2013-05-06 13:07:00,
2013-05-06 09:15:00,59.0,58.4,29.83,WNW,286,1.0,5.0,98,0.00,,OVC005,0.00,VWS V14.01,2013-05-06 13:15:00,
2013-05-06 09:21:00,59.2,58.9,29.84,South,170,0.0,2.0,99,0.00,,OVC005,0.00,VWS V14.01,2013-05-06 13:21:00,
2013-05-06 09:30:00,59.8,59.8,29.84,SSE,167,0.0,2.0,100,0.00,,OVC005,0.00,VWS V14.01,2013-05-06 13:30:00,
2013-05-06 09:35:00,60.0,59.4,29.84,SSE,167,1.0,1.0,98,0.00,,OVC005,0.00,VWS V14.01,2013-05-06 13:35:00,
2013-05-06 09:45:00,58.8,58.2,29.83,ESE,123,0.0,1.0,98,0.00,,OVC060,0.00,VWS V14.01,2013-05-06 13:45:00,
2013-05-06 09:56:00,59.0,58.4,29.85,ESE,115,0.0,4.0,98,0.00,,OVC005,0.00,VWS V14.01,2013-05-06 13:56:00,
2013-05-06 10:00:00,58.9,58.3,29.85,NNW,333,0.0,4.0,98,0.00,,CLR,0.00,VWS V14.01,2013-05-06 14:00:00,
2013-05-06 10:06:00,58.7,57.8,29.86,NNW,336,0.0,4.0,97,0.00,,OVC007,0.00,VWS V14.01,2013-05-06 14:06:00,
2013-05-06 10:15:00,58.8,58.0,29.85,NNW,337,0.0,4.0,97,0.00,,OVC007,0.00,VWS V14.01,2013-05-06 14:15:00,
2013-05-06 10:24:00,59.0,58.2,29.86,NNW,346,0.0,1.0,97,0.00,,OVC007,0.00,VWS V14.01,2013-05-06 14:24:00,
2013-05-06 10:30:00,59.0,57.9,29.86,NNW,346,0.0,1.0,96,0.00,,OVC007,0.00,VWS V14.01,2013-05-06 14:30:00,
2013-05-06 10:38:00,59.4,58.3,29.87,NW,317,0.0,2.0,96,0.00,,OVC011,0.00,VWS V14.01,2013-05-06 14:38:00,
2013-05-06 10:45:00,59.8,58.7,29.87,NW,317,0.0,2.0,96,0.00,,OVC011,0.00,VWS V14.01,2013-05-06 14:45:00,
2013-05-06 10:52:00,60.3,58.6,29.87,NW,317,0.0,1.0,94,0.00,,OVC011,0.00,VWS V14.01,2013-05-06 14:52:00,
2013-05-06 11:00:00,60.3,58.3,29.87,WNW,284,0.0,5.0,93,0.00,,OVC011,0.00,VWS V14.01,2013-05-06 15:00:00,
2013-05-06 11:06:00,60.7,58.4,29.87,SE,138,1.0,2.0,92,0.00,,SCT015,0.00,VWS V14.01,2013-05-06 15:06:00,
2013-05-06 11:15:00,61.1,58.2,29.87,SW,225,0.0,5.0,90,0.00,,SCT015,0.00,VWS V14.01,2013-05-06 15:15:00,
2013-05-06 11:20:00,61.4,58.1,29.87,NW,310,0.0,5.0,89,0.00,,SCT015,0.00,VWS V14.01,2013-05-06 15:20:00,
2013-05-06 11:30:00,62.3,58.7,29.88,SE,145,1.0,5.0,88,0.00,,SCT015,0.00,VWS V14.01,2013-05-06 15:30:00,
2013-05-06 11:39:00,63.7,59.1,29.88,SE,136,0.0,3.0,85,0.00,,SCT015,0.00,VWS V14.01,2013-05-06 15:39:00,
2013-05-06 11:45:00,63.6,58.7,29.88,North,349,0.0,5.0,84,0.00,,SCT015,0.00,VWS V14.01,2013-05-06 15:45:00,
2013-05-06 11:53:00,64.3,59.7,29.88,WNW,290,0.0,4.0,85,0.00,,SCT015,0.00,VWS V14.01,2013-05-06 15:53:00,
2013-05-06 12:00:00,64.4,58.5,29.88,NNW,330,1.0,6.0,81,0.00,,SCT015,0.00,VWS V14.01,2013-05-06 16:00:00,
2013-05-06 12:07:00,64.1,58.2,29.87,SW,236,4.0,6.0,81,0.00,,CLR,0.00,VWS V14.01,2013-05-06 16:07:00,
2013-05-06 12:15:00,64.7,58.7,29.87,ESE,107,2.0,6.0,81,0.00,,CLR,0.00,VWS V14.01,2013-05-06 16:15:00,
2013-05-06 12:21:00,64.6,58.0,29.87,SE,134,1.0,4.0,79,0.00,,CLR,0.00,VWS V14.01,2013-05-06 16:21:00,
2013-05-06 12:30:00,64.7,57.7,29.87,East,80,0.0,4.0,78,0.00,,CLR,0.00,VWS V14.01,2013-05-06 16:30:00,
2013-05-06 12:40:00,65.3,59.0,29.86,ESE,115,0.0,4.0,80,0.00,,CLR,0.00,VWS V14.01,2013-05-06 16:40:00,
2013-05-06 12:45:00,65.2,57.5,29.86,NNW,338,1.0,5.0,76,0.00,,CLR,0.00,VWS V14.01,2013-05-06 16:45:00,
2013-05-06 12:54:00,64.5,56.8,29.86,North,355,2.0,5.0,76,0.00,,CLR,0.00,VWS V14.01,2013-05-06 16:54:00,
2013-05-06 13:00:00,64.8,57.4,29.85,North,360,0.0,5.0,77,0.00,,CLR,0.00,VWS V14.01,2013-05-06 17:00:00,
2013-05-06 13:08:00,64.9,56.8,29.85,North,360,0.0,2.0,75,0.00,,CLR,0.00,VWS V14.01,2013-05-06 17:08:00,
2013-05-06 13:15:00,64.9,57.2,29.85,South,178,0.0,2.0,76,0.00,,CLR,0.00,VWS V14.01,2013-05-06 17:15:00,
2013-05-06 13:22:00,65.9,57.8,29.85,SSW,203,0.0,5.0,75,0.00,,CLR,0.00,VWS V14.01,2013-05-06 17:22:00,
2013-05-06 13:30:00,67.2,59.0,29.84,SSW,203,0.0,5.0,75,0.00,,CLR,0.00,VWS V14.01,2013-05-06 17:30:00,
2013-05-06 13:36:00,67.1,56.6,29.84,SSW,200,0.0,2.0,69,0.00,,CLR,0.00,VWS V14.01,2013-05-06 17:36:00,
2013-05-06 13:45:00,68.0,56.7,29.83,WSW,246,0.0,2.0,67,0.00,,CLR,0.00,VWS V14.01,2013-05-06 17:45:00,
2013-05-06 13:54:00,68.5,56.7,29.83,SW,214,0.0,2.0,66,0.00,,CLR,0.00,VWS V14.01,2013-05-06 17:54:00,
2013-05-06 14:00:00,68.0,56.7,29.83,WSW,237,0.0,3.0,67,0.00,,CLR,0.00,VWS V14.01,2013-05-06 18:00:00,
2013-05-06 14:08:00,68.3,57.8,29.83,SSE,149,0.0,5.0,69,0.00,,CLR,0.00,VWS V14.01,2013-05-06 18:08:00,
2013-05-06 14:15:00,68.8,57.0,29.83,South,186,0.0,5.0,66,0.00,,CLR,0.00,VWS V14.01,2013-05-06 18:15:00,
2013-05-06 14:22:00,69.5,58.1,29.83,SW,232,1.0,4.0,67,0.00,,CLR,0.00,VWS V14.01,2013-05-06 18:22:00,
2013-05-06 14:30:00,70.5,56.9,29.82,South,190,0.0,4.0,62,0.00,,CLR,0.00,VWS V14.01,2013-05-06 18:30:00,
2013-05-06 14:36:00,69.8,56.7,29.82,NNE,28,3.0,8.0,63,0.00,,CLR,0.00,VWS V14.01,2013-05-06 18:36:00,
2013-05-06 14:45:00,70.2,57.5,29.82,NNW,327,2.0,8.0,64,0.00,,CLR,0.00,VWS V14.01,2013-05-06 18:45:00,
2013-05-06 14:50:00,71.0,56.9,29.82,South,169,0.0,6.0,61,0.00,,CLR,0.00,VWS V14.01,2013-05-06 18:50:00,
2013-05-06 14:59:00,71.7,54.7,29.82,SW,225,0.0,7.0,55,0.00,,CLR,0.00,VWS V14.01,2013-05-06 18:59:00,
2013-05-06 15:00:00,71.8,56.7,29.82,SW,225,0.0,7.0,59,0.00,,CLR,0.00,VWS V14.01,2013-05-06 19:00:00,
2013-05-06 15:09:00,72.3,56.2,29.81,South,178,0.0,5.0,57,0.00,,CLR,0.00,VWS V14.01,2013-05-06 19:09:00,
2013-05-06 15:15:00,72.5,53.4,29.81,SSE,152,0.0,5.0,51,0.00,,CLR,0.00,VWS V14.01,2013-05-06 19:15:00,
2013-05-06 15:23:00,72.2,55.2,29.81,SE,146,1.0,1.0,55,0.00,,CLR,0.00,VWS V14.01,2013-05-06 19:23:00,
2013-05-06 15:30:00,72.3,53.2,29.81,NNW,340,1.0,6.0,51,0.00,,CLR,0.00,VWS V14.01,2013-05-06 19:30:00,
2013-05-06 15:37:00,72.4,54.3,29.80,North,9,0.0,2.0,53,0.00,,CLR,0.00,VWS V14.01,2013-05-06 19:37:00,
2013-05-06 15:45:00,72.7,54.6,29.80,West,269,0.0,5.0,53,0.00,,CLR,0.00,VWS V14.01,2013-05-06 19:45:00,
2013-05-06 15:51:00,73.0,54.4,29.80,NW,317,1.0,6.0,52,0.00,,CLR,0.00,VWS V14.01,2013-05-06 19:51:00,
2013-05-06 16:00:00,73.0,53.8,29.80,NNW,337,0.0,6.0,51,0.00,,CLR,0.00,VWS V14.01,2013-05-06 20:00:00,
2013-05-06 16:09:00,72.9,55.8,29.80,SSW,209,0.0,8.0,55,0.00,,CLR,0.00,VWS V14.01,2013-05-06 20:09:00,
2013-05-06 16:15:00,73.3,53.0,29.80,NW,323,0.0,8.0,49,0.00,,CLR,0.00,VWS V14.01,2013-05-06 20:15:00,
2013-05-06 16:23:00,73.9,54.1,29.80,SW,225,0.0,5.0,50,0.00,,CLR,0.00,VWS V14.01,2013-05-06 20:23:00,
2013-05-06 16:30:00,73.9,54.1,29.80,SE,142,0.0,5.0,50,0.00,,CLR,0.00,VWS V14.01,2013-05-06 20:30:00,
2013-05-06 16:37:00,73.2,55.6,29.79,SW,230,0.0,1.0,54,0.00,,CLR,0.00,VWS V14.01,2013-05-06 20:37:00,
2013-05-06 16:45:00,73.2,54.5,29.79,SSW,205,1.0,2.0,52,0.00,,CLR,0.00,VWS V14.01,2013-05-06 20:45:00,
2013-05-06 16:51:00,73.0,53.3,29.79,WNW,297,0.0,6.0,50,0.00,,CLR,0.00,VWS V14.01,2013-05-06 20:51:00,
2013-05-06 17:00:00,72.7,53.5,29.79,West,272,2.0,8.0,51,0.00,,CLR,0.00,VWS V14.01,2013-05-06 21:00:00,
2013-05-06 17:05:00,72.3,52.6,29.80,East,95,4.0,6.0,50,0.00,,FEW060,0.00,VWS V14.01,2013-05-06 21:05:00,
2013-05-06 17:15:00,71.8,50.5,29.80,West,281,0.0,6.0,47,0.00,,FEW060,0.00,VWS V14.01,2013-05-06 21:15:00,
2013-05-06 17:24:00,71.4,51.8,29.80,SSE,156,0.0,2.0,50,0.00,,FEW060,0.00,VWS V14.01,2013-05-06 21:24:00,
2013-05-06 17:30:00,71.3,52.3,29.80,South,171,4.0,5.0,51,0.00,,FEW060,0.00,VWS V14.01,2013-05-06 21:30:00,
2013-05-06 17:38:00,71.0,50.9,29.80,ESE,119,0.0,5.0,49,0.00,,FEW060,0.00,VWS V14.01,2013-05-06 21:38:00,
2013-05-06 17:45:00,70.7,50.6,29.80,SSW,195,0.0,5.0,49,0.00,,FEW060,0.00,VWS V14.01,2013-05-06 21:45:00,
2013-05-06 17:52:00,70.0,51.6,29.80,SSW,210,0.0,2.0,52,0.00,,FEW060,0.00,VWS V14.01,2013-05-06 21:52:00,
2013-05-06 18:00:00,69.1,54.7,29.80,SSW,210,0.0,2.0,60,0.00,,FEW060,0.00,VWS V14.01,2013-05-06 22:00:00,
2013-05-06 18:06:00,69.0,56.3,29.80,SSW,210,0.0,0.0,64,0.00,,SCT060,0.00,VWS V14.01,2013-05-06 22:06:00,
2013-05-06 18:15:00,69.1,51.8,29.80,West,271,0.0,4.0,54,0.00,,SCT060,0.00,VWS V14.01,2013-05-06 22:15:00,
2013-05-06 18:25:00,68.9,54.0,29.81,WSW,250,0.0,2.0,59,0.00,,SCT060,0.00,VWS V14.01,2013-05-06 22:25:00,
2013-05-06 18:30:00,68.8,52.5,29.80,WSW,250,0.0,2.0,56,0.00,,SCT060,0.00,VWS V14.01,2013-05-06 22:30:00,
2013-05-06 18:39:00,68.8,52.0,29.81,WSW,251,0.0,4.0,55,0.00,,SCT060,0.00,VWS V14.01,2013-05-06 22:39:00,
2013-05-06 18:45:00,68.8,52.5,29.81,SSW,201,0.0,4.0,56,0.00,,SCT060,0.00,VWS V14.01,2013-05-06 22:45:00,
2013-05-06 18:53:00,68.6,51.8,29.81,WSW,238,0.0,5.0,55,0.00,,SCT060,0.00,VWS V14.01,2013-05-06 22:53:00,
2013-05-06 19:00:00,68.1,51.8,29.81,West,263,0.0,5.0,56,0.00,,SCT060,0.00,VWS V14.01,2013-05-06 23:00:00,
2013-05-06 19:07:00,67.7,52.9,29.81,SSE,168,3.0,4.0,59,0.00,,SCT070,0.00,VWS V14.01,2013-05-06 23:07:00,
2013-05-06 19:15:00,67.0,52.2,29.81,ESE,121,0.0,4.0,59,0.00,,SCT070,0.00,VWS V14.01,2013-05-06 23:15:00,
2013-05-06 19:21:00,66.5,52.2,29.81,SE,127,0.0,1.0,60,0.00,,SCT070,0.00,VWS V14.01,2013-05-06 23:21:00,
2013-05-06 19:30:00,65.7,54.5,29.81,SE,127,0.0,1.0,67,0.00,,SCT070,0.00,VWS V14.01,2013-05-06 23:30:00,
2013-05-06 19:39:00,64.9,53.7,29.82,SE,127,0.0,0.0,67,0.00,,SCT070,0.00,VWS V14.01,2013-05-06 23:39:00,
2013-05-06 19:45:00,64.3,52.7,29.82,SE,126,0.0,0.0,66,0.00,,SCT070,0.00,VWS V14.01,2013-05-06 23:45:00,
2013-05-06 19:53:00,63.5,53.5,29.82,SE,127,0.0,0.0,70,0.00,,SCT070,0.00,VWS V14.01,2013-05-06 23:53:00,
2013-05-06 20:00:00,62.9,53.8,29.82,SE,127,0.0,0.0,72,0.00,,SCT070,0.00,VWS V14.01,2013-05-07 00:00:00,
2013-05-06 20:07:00,62.3,52.8,29.82,SE,127,0.0,0.0,71,0.00,,CLR,0.00,VWS V14.01,2013-05-07 00:07:00,
2013-05-06 20:15:00,61.5,52.8,29.82,SE,127,0.0,0.0,73,0.00,,CLR,0.00,VWS V14.01,2013-05-07 00:15:00,
2013-05-06 20:21:00,61.0,53.0,29.83,SE,127,0.0,0.0,75,0.00,,CLR,0.00,VWS V14.01,2013-05-07 00:21:00,
2013-05-06 20:30:00,60.4,52.5,29.83,SE,126,0.0,0.0,75,0.00,,CLR,0.00,VWS V14.01,2013-05-07 00:30:00,
2013-05-06 20:35:00,60.0,52.8,29.83,SE,127,0.0,0.0,77,0.00,,CLR,0.00,VWS V14.01,2013-05-07 00:35:00,
2013-05-06 20:45:00,59.4,52.2,29.83,SE,127,0.0,0.0,77,0.00,,CLR,0.00,VWS V14.01,2013-05-07 00:45:00,
2013-05-06 20:54:00,59.0,52.5,29.84,SE,127,0.0,0.0,79,0.00,,CLR,0.00,VWS V14.01,2013-05-07 00:54:00,
2013-05-06 21:00:00,58.9,52.8,29.84,SE,127,0.0,0.0,80,0.00,,CLR,0.00,VWS V14.01,2013-05-07 01:00:00,
2013-05-06 21:08:00,58.4,52.3,29.84,SE,127,0.0,0.0,80,0.00,,CLR,0.00,VWS V14.01,2013-05-07 01:08:00,
2013-05-06 21:15:00,58.1,52.0,29.85,SE,126,0.0,0.0,80,0.00,,CLR,0.00,VWS V14.01,2013-05-07 01:15:00,
2013-05-06 21:22:00,57.8,51.7,29.85,SE,127,0.0,0.0,80,0.00,,CLR,0.00,VWS V14.01,2013-05-07 01:22:00,
2013-05-06 21:30:00,57.7,51.9,29.86,SE,126,0.0,0.0,81,0.00,,CLR,0.00,VWS V14.01,2013-05-07 01:30:00,
2013-05-06 21:36:00,57.5,51.7,29.86,SE,126,0.0,0.0,81,0.00,,CLR,0.00,VWS V14.01,2013-05-07 01:36:00,
2013-05-06 21:45:00,57.3,51.9,29.86,SE,127,0.0,0.0,82,0.00,,CLR,0.00,VWS V14.01,2013-05-07 01:45:00,
2013-05-06 21:55:00,57.1,52.0,29.86,SE,127,0.0,0.0,83,0.00,,CLR,0.00,VWS V14.01,2013-05-07 01:55:00,
2013-05-06 22:00:00,57.1,52.0,29.87,SE,126,0.0,0.0,83,0.00,,CLR,0.00,VWS V14.01,2013-05-07 02:00:00,
2013-05-06 22:09:00,56.9,51.8,29.87,SE,127,0.0,0.0,83,0.00,,CLR,0.00,VWS V14.01,2013-05-07 02:09:00,
2013-05-06 22:15:00,56.9,51.8,29.87,SE,127,0.0,0.0,83,0.00,,CLR,0.00,VWS V14.01,2013-05-07 02:15:00,
2013-05-06 22:23:00,56.8,51.7,29.88,SE,127,0.0,0.0,83,0.00,,CLR,0.00,VWS V14.01,2013-05-07 02:23:00,
2013-05-06 22:30:00,56.8,52.0,29.88,SE,127,0.0,0.0,84,0.00,,CLR,0.00,VWS V14.01,2013-05-07 02:30:00,
2013-05-06 22:37:00,56.7,52.2,29.88,SE,127,0.0,0.0,85,0.00,,CLR,0.00,VWS V14.01,2013-05-07 02:37:00,
2013-05-06 22:45:00,56.6,52.5,29.88,SE,127,0.0,0.0,86,0.00,,CLR,0.00,VWS V14.01,2013-05-07 02:45:00,
2013-05-06 22:51:00,56.6,52.5,29.88,SE,127,0.0,0.0,86,0.00,,CLR,0.00,VWS V14.01,2013-05-07 02:51:00,
2013-05-06 23:00:00,56.7,52.6,29.88,SE,126,0.0,0.0,86,0.00,,CLR,0.00,VWS V14.01,2013-05-07 03:00:00,
2013-05-06 23:09:00,56.7,52.6,29.88,SE,127,0.0,0.0,86,0.00,,CLR,0.00,VWS V14.01,2013-05-07 03:09:00,
2013-05-06 23:15:00,56.7,52.6,29.88,SE,126,0.0,0.0,86,0.00,,CLR,0.00,VWS V14.01,2013-05-07 03:15:00,
2013-05-06 23:23:00,56.5,52.4,29.88,SE,127,0.0,0.0,86,0.00,,CLR,0.00,VWS V14.01,2013-05-07 03:23:00,
2013-05-06 23:30:00,56.4,52.3,29.88,SE,126,0.0,0.0,86,0.00,,CLR,0.00,VWS V14.01,2013-05-07 03:30:00,
2013-05-06 23:37:00,56.4,52.6,29.88,SE,127,0.0,0.0,87,0.00,,CLR,0.00,VWS V14.01,2013-05-07 03:37:00,
2013-05-06 23:45:00,56.3,52.2,29.88,SE,126,0.0,0.0,86,0.00,,CLR,0.00,VWS V14.01,2013-05-07 03:45:00,
2013-05-06 23:51:00,56.2,52.4,29.88,SE,127,0.0,0.0,87,0.00,,CLR,0.00,VWS V14.01,2013-05-07 03:51:00,